Weather in Agishty

Russia / Chechen Republic     43°01′12″N   45°53′36″E
temp.,
°C
wind,
m/s
gust,
m/s
humid.,
%
clouds,
%
prec.,
mm/h
press.,
hPa
HPBL,
m
17 april, sat
sat1700:00+10s33662 0.0 101928
03:00+10s33625 0.0 101837
06:00+10s335840 0.0 101846
09:00+18n1138100 0.0 1016789
12:00+18nw4345100 0.0 10181246
15:00+16wnw445696 0.0 10191241
18:00+13w2565100 0.0 1021617
21:00+10nw1184100 0.0 1022207
18 april, sun
sun1800:00+10nw1188100 0.0 1021147
03:00+9n1193100 0.0 102186
06:00+8ne119287 0.0 1020127
09:00+13nne2268100 0.0 1017534
12:00+16nnw326095 0.1 10171063
15:00+16nne2162100 0.6 1017996
18:00+13e018086 0.8 101736
21:00+12sse4687100 1.6 1017172
19 april, mon
mon1900:00+11se1187100 0.1 101713
03:00+10sse1184100 0.1 101712
06:00+11sse2178100 0.0 101616
09:00+17nne22595 0.0 1016561
12:00+20nne4351100 0.1 10151333
15:00+19nne3353100 0.3 10141107
18:00+15nne116880 0.0 101417
21:00+11sw1183100 0.0 101719
20 april, tue
tue2000:00+11se118091 0.0 101514
03:00+12sse2271100 0.0 101325
06:00+13sse336399 0.0 101137
09:00+24se133522 0.0 1007453
12:00+28n132897 0.0 10041383
15:00+27nw2334100 0.0 10031399
18:00+21ssw1258100 0.0 100421
21:00+18ssw3460100 0.1 100789
21 april, wed
wed2100:00+14wnw2377100 0.1 1012106
03:00+12wnw3689100 0.1 1014651
06:00+11wnw2694100 0.7 1017684
09:00+10wnw3592100 0.9 1018715
12:00+10wnw2589100 0.3 1019708
15:00+8sw2394100 6.0 1020269
18:00+8wnw239383 5.8 1021351
21:00+8w129698 8.2 1022241